GFSNE_850_temp_096.txt.gz
Temp
10 11 11 11 11 11 11 10 10 9 9 9 8 9 9 8 8 8 7 7 7 7 7 7 6 6 6 5 5 5 5 4 3 3 3 2 2 3
11 10 11 11 11 11 11 11 10 9 8 8 8 7 7 9 9 8 8 7 7 8 7 6 6 5 5 5 5 5 4 3 3 2 2 2 2 2
10 11 11 10 10 10 10 10 9 8 7 8 7 7 7 8 8 7 7 7 7 6 6 6 5 5 4 4 4 3 3 2 2 1 1 1 1 1
10 10 10 10 9 9 9 9 8 8 7 7 8 7 7 7 7 7 6 7 6 5 5 5 5 3 3 3 3 2 1 1 1 1 1 1 1 0
10 9 9 9 9 9 9 8 8 8 8 7 7 7 7 6 6 6 5 5 4 4 4 4 3 2 0 0 -0 -0 -1 -1 -1 -0 0 0 0 -0
9 9 9 9 9 9 9 8 8 7 7 7 6 6 5 5 4 4 4 3 3 2 1 0 -0 0 -0 -0 -1 -1 -1 -1 -1 -0 -0 -0 -0 -0
9 9 9 9 8 8 8 7 7 6 5 5 4 3 3 2 1 1 1 1 0 -1 -0 -0 -1 -2 -3 -3 -2 -2 -3 -1 -1 -1 -1 -1 -0 -1
9 9 8 8 7 7 6 5 5 3 3 2 1 0 0 -1 -1 -1 -1 -1 -1 -1 -2 -1 -2 -1 -1 -4 -4 -3 -3 -3 -4 -3 -3 -3 -3 -2
8 7 7 5 4 3 3 1 2 1 0 -1 -1 -1 -2 -2 -2 -2 -3 -3 -3 -3 -4 -4 -4 -4 -4 -4 -5 -4 -4 -5 -4 -4 -5 -5 -5 -5
6 4 3 2 1 0 -0 -1 -1 -1 -1 -2 -2 -3 -3 -3 -4 -4 -4 -5 -5 -5 -7 -7 -7 -6 -6 -6 -6 -6 -5 -5 -6 -6 -6 -6 -7 -7
2 1 0 -0 -1 -1 -1 -1 -2 -2 -3 -3 -4 -5 -6 -7 -8 -7 -7 -8 -8 -9 -8 -9 -9 -9 -8 -7 -7 -6 -6 -7 -7 -7 -7 -7 -7 -7
-0 -1 -1 -1 -1 -2 -2 -3 -3 -4 -5 -6 -7 -8 -9 -9 -9 -9 -10 -10 -10 -11 -10 -10 -10 -11 -11 -10 -9 -8 -8 -8 -8 -8 -8 -8 -8 -8
-1 -2 -2 -3 -3 -4 -4 -5 -6 -7 -8 -9 -9 -10 -10 -10 -10 -10 -11 -11 -12 -12 -12 -13 -13 -12 -13 -13 -12 -11 -11 -10 -9 -10 -10 -9 -9 -9
-2 -4 -4 -5 -5 -6 -7 -9 -10 -10 -11 -11 -11 -12 -12 -12 -12 -12 -13 -13 -13 -13 -13 -14 -14 -14 -13 -13 -13 -12 -12 -12 -12 -12 -11 -10 -10 -9
-5 -6 -7 -8 -10 -10 -11 -11 -11 -12 -12 -13 -13 -13 -14 -14 -15 -15 -15 -15 -15 -15 -15 -15 -15 -15 -15 -14 -14 -13 -12 -13 -13 -12 -12 -11 -10 -10
-8 -9 -10 -10 -11 -11 -12 -12 -13 -13 -14 -14 -15 -15 -16 -16 -16 -16 -17 -17 -17 -16 -16 -16 -16 -16 -16 -16 -15 -15 -14 -14 -13 -13 -13 -13 -12 -11
-10 -10 -10 -11 -12 -12 -13 -13 -14 -15 -15 -16 -16 -17 -17 -17 -17 -18 -18 -18 -18 -18 -17 -17 -17 -17 -16 -16 -16 -15 -15 -14 -14 -14 -13 -12 -12 -11
-10 -11 -12 -13 -14 -14 -15 -15 -16 -16 -16 -17 -18 -18 -18 -18 -18 -19 -18 -19 -18 -18 -18 -18 -18 -17 -17 -16 -16 -16 -16 -16 -16 -15 -14 -14 -13 -12
-11 -13 -14 -15 -15 -16 -16 -17 -17 -18 -18 -18 -18 -19 -19 -19 -19 -19 -19 -19 -19 -19 -19 -18 -18 -18 -18 -18 -17 -17 -17 -16 -16 -15 -15 -14 -14 -12
-14 -15 -16 -16 -17 -17 -17 -18 -18 -18 -19 -19 -19 -19 -20 -20 -20 -20 -20 -20 -20 -19 -19 -19 -19 -18 -19 -18 -18 -18 -17 -17 -17 -16 -15 -14 -13 -12
-15 -16 -17 -17 -17 -18 -18 -19 -19 -19 -20 -20 -20 -20 -20 -20 -20 -20 -20 -20 -20 -20 -19 -19 -19 -19 -19 -18 -18 -18 -18 -17 -16 -16 -15 -15 -14 -12
-16 -17 -18 -18 -19 -19 -19 -19 -19 -20 -20 -21 -21 -21 -21 -20 -21 -21 -21 -20 -20 -20 -20 -20 -19 -19 -19 -19 -19 -18 -18 -17 -16 -16 -15 -14 -14 -13
-16 -17 -17 -18 -18 -18 -18 -19 -20 -20 -21 -21 -20 -19 -20 -20 -21 -21 -21 -21 -21 -21 -20 -20 -20 -19 -19 -19 -19 -18 -17 -17 -16 -14 -11 -11 -10 -9

GFSNE_850_temp_102.txt.gz
Temp
10 10 11 11 10 11 11 11 10 10 10 11 10 11 11 10 10 9 9 8 8 7 7 7 7 7 7 7 6 6 6 6 6 5 5 5 4 4
10 10 10 11 11 11 10 10 10 10 9 10 10 10 10 9 9 8 8 8 7 7 7 7 7 7 7 6 6 6 5 5 5 5 4 4 3 3
10 10 10 10 10 10 10 10 10 10 9 10 10 10 9 8 8 9 8 7 7 7 7 6 6 6 6 6 6 5 4 4 3 3 3 3 2 2
9 10 10 10 10 10 10 10 9 9 9 9 9 9 8 8 8 8 8 7 6 6 6 6 5 5 5 5 4 3 3 2 2 2 1 1 1 1
9 10 9 9 9 10 10 9 9 9 8 8 8 8 8 7 7 6 6 6 5 4 4 3 3 2 2 2 2 2 1 0 -0 -0 -0 -0 -0 -1
9 9 9 9 9 9 9 9 9 8 8 8 8 6 5 5 5 4 4 3 3 2 1 1 0 -0 -0 -1 -1 -1 -1 -1 -2 -2 -2 -2 -2 -3
10 9 9 9 9 9 9 9 8 8 7 6 5 4 3 3 2 1 1 1 -0 0 -0 -1 -1 -1 -2 -2 -2 -2 -2 -3 -3 -4 -4 -5 -5 -5
9 8 9 9 9 9 8 7 6 5 5 4 4 2 1 0 -1 -1 -1 -1 -1 -3 -2 -1 -2 -3 -4 -4 -5 -6 -7 -6 -7 -7 -7 -6 -6 -6
9 9 9 8 8 6 5 3 1 2 1 1 1 -0 -1 -2 -2 -3 -4 -4 -5 -5 -5 -4 -5 -5 -6 -6 -6 -7 -8 -8 -8 -8 -9 -8 -8 -8
8 8 7 5 3 1 0 0 0 -1 -1 -2 -2 -3 -4 -4 -5 -5 -5 -6 -7 -8 -8 -9 -9 -9 -8 -8 -9 -9 -9 -10 -10 -10 -11 -11 -11 -10
7 4 1 0 -0 0 -1 -1 -2 -3 -5 -4 -4 -6 -6 -6 -6 -8 -8 -8 -8 -8 -10 -11 -11 -11 -11 -11 -12 -12 -11 -12 -12 -14 -14 -13 -13 -12
-0 -1 -1 -2 -3 -4 -3 -3 -4 -5 -6 -6 -7 -6 -7 -8 -9 -9 -10 -10 -11 -12 -12 -13 -13 -14 -15 -14 -13 -13 -14 -14 -15 -14 -13 -14 -13 -13
-2 -3 -4 -5 -4 -4 -5 -5 -6 -7 -8 -7 -7 -8 -9 -9 -9 -10 -11 -12 -13 -14 -14 -16 -16 -16 -17 -17 -17 -16 -16 -15 -15 -15 -15 -15 -15 -14
-3 -3 -4 -3 -3 -7 -7 -6 -6 -7 -8 -8 -8 -8 -9 -10 -11 -12 -12 -13 -14 -15 -15 -16 -17 -17 -18 -17 -17 -16 -16 -16 -16 -16 -16 -16 -15 -15
-5 -7 -7 -6 -7 -5 -8 -8 -9 -9 -9 -9 -9 -11 -12 -12 -13 -13 -13 -13 -13 -14 -15 -16 -17 -17 -18 -18 -18 -17 -17 -17 -17 -17 -17 -16 -16 -15
-5 -7 -8 -10 -9 -10 -10 -10 -10 -10 -10 -11 -12 -13 -13 -13 -14 -14 -14 -14 -14 -14 -15 -16 -17 -18 -18 -18 -18 -17 -17 -18 -18 -18 -18 -18 -17 -17
-9 -10 -11 -11 -11 -11 -11 -11 -12 -12 -12 -12 -13 -13 -14 -14 -15 -15 -16 -16 -16 -16 -16 -16 -17 -18 -18 -19 -18 -18 -18 -18 -18 -19 -18 -18 -18 -17
-10 -10 -10 -11 -11 -12 -12 -12 -12 -13 -13 -14 -14 -15 -15 -15 -15 -16 -16 -17 -17 -17 -17 -17 -18 -18 -18 -19 -19 -19 -19 -19 -18 -18 -19 -18 -18 -17
-8 -10 -11 -12 -12 -12 -12 -13 -13 -14 -15 -15 -15 -15 -16 -16 -16 -16 -17 -17 -17 -18 -18 -18 -19 -20 -21 -20 -19 -19 -20 -19 -19 -19 -19 -18 -18 -16
-10 -11 -12 -12 -13 -13 -13 -14 -15 -15 -15 -15 -15 -16 -16 -16 -16 -17 -17 -17 -17 -17 -18 -18 -19 -20 -21 -21 -20 -16 -17 -19 -19 -19 -18 -18 -17 -15
-11 -12 -13 -13 -13 -14 -14 -15 -15 -15 -15 -15 -16 -16 -17 -17 -17 -17 -17 -17 -17 -18 -18 -18 -19 -19 -19 -20 -20 -17 -15 -16 -18 -18 -17 -17 -16 -13
-12 -13 -14 -14 -14 -15 -15 -15 -15 -15 -16 -16 -17 -17 -17 -17 -17 -17 -17 -17 -18 -18 -18 -18 -18 -18 -19 -20 -19 -18 -16 -14 -14 -14 -14 -14 -14 -13
-14 -15 -14 -15 -15 -15 -15 -15 -15 -16 -16 -17 -17 -17 -17 -17 -17 -17 -17 -18 -18 -18 -18 -17 -17 -18 -18 -19 -20 -19 -17 -15 -13 -11 -10 -10 -11 -11

GFSNE_850_temp_108.txt.gz
Temp
9 9 9 10 10 11 10 10 10 9 10 10 10 11 10 10 10 10 9 9 9 8 8 8 8 8 7 7 7 7 7 7 7 6 6 6 6 6
9 9 9 9 9 9 9 9 8 9 8 10 10 10 10 9 9 9 9 9 8 8 8 8 7 8 7 7 7 7 6 7 6 6 5 5 5 5
9 8 9 9 9 8 8 8 8 8 8 9 9 9 9 9 8 8 8 8 8 7 7 7 7 7 7 6 6 5 5 5 5 4 4 4 4 4
8 8 9 8 8 9 8 8 9 8 8 8 9 9 9 8 8 8 8 7 7 7 6 4 4 3 3 3 4 4 3 2 1 1 1 1 1 1
8 8 8 8 8 8 8 9 8 8 8 8 9 9 8 8 7 7 5 5 5 3 3 2 1 -0 -0 0 0 0 -0 -1 -1 -1 -1 -1 -2 -2
9 8 8 7 8 8 8 8 8 8 8 8 8 7 7 7 6 5 4 3 2 1 0 0 -1 -2 -1 -1 -2 -2 -3 -3 -2 -3 -2 -2 -3 -3
8 8 7 8 8 8 8 9 8 8 7 7 7 6 6 4 3 3 2 0 0 -1 -1 -1 -2 -3 -2 -2 -2 -2 -3 -4 -4 -5 -5 -5 -5 -5
8 8 8 8 8 8 8 8 8 7 7 7 6 4 3 1 -1 -1 -2 -3 -4 -4 -4 -3 -2 -3 -4 -4 -5 -5 -5 -6 -7 -8 -8 -8 -8 -8
8 8 8 8 8 8 8 8 7 6 6 4 2 0 -1 -2 -3 -3 -3 -4 -5 -4 -4 -5 -5 -4 -5 -5 -5 -6 -7 -8 -9 -9 -10 -9 -10 -10
7 7 7 7 7 7 7 6 4 3 2 1 -0 -1 -2 -2 -3 -5 -6 -4 -4 -4 -5 -6 -5 -5 -6 -6 -7 -8 -9 -9 -10 -10 -10 -10 -11 -11
7 7 6 5 4 3 1 1 1 0 -1 -2 -2 -3 -3 -4 -5 -5 -5 -5 -5 -7 -7 -9 -9 -9 -8 -8 -9 -9 -10 -11 -11 -11 -11 -11 -11 -12
6 5 4 2 -1 -2 -1 -1 -1 -3 -3 -4 -4 -6 -6 -5 -5 -6 -6 -6 -7 -8 -9 -10 -10 -11 -12 -13 -12 -10 -11 -11 -11 -11 -12 -12 -13 -14
4 1 -1 -2 -3 -3 -3 -3 -3 -4 -5 -6 -6 -6 -6 -7 -7 -7 -8 -8 -9 -10 -11 -11 -12 -13 -14 -14 -12 -11 -13 -13 -13 -13 -14 -15 -16 -17
1 -3 -4 -4 -4 -4 -4 -4 -5 -6 -6 -6 -6 -7 -7 -8 -8 -9 -10 -10 -11 -12 -12 -13 -13 -14 -15 -14 -14 -13 -13 -14 -14 -15 -15 -14 -14 -15
-3 -3 -2 -3 -4 -5 -6 -7 -6 -6 -7 -7 -8 -8 -8 -10 -10 -10 -11 -12 -12 -13 -13 -13 -13 -14 -15 -15 -15 -13 -15 -14 -14 -15 -14 -15 -15 -15
-2 -4 -5 -5 -5 -6 -6 -7 -7 -7 -8 -8 -9 -10 -11 -11 -11 -11 -11 -11 -11 -12 -13 -13 -13 -14 -14 -14 -14 -13 -15 -16 -13 -15 -15 -15 -14 -15
-5 -6 -6 -7 -6 -7 -7 -8 -8 -9 -9 -10 -11 -11 -11 -11 -11 -12 -12 -12 -13 -12 -12 -12 -13 -14 -14 -13 -12 -14 -14 -15 -15 -15 -16 -14 -12 -13
-6 -6 -6 -7 -7 -8 -9 -9 -10 -10 -11 -11 -11 -12 -12 -12 -13 -13 -13 -13 -13 -14 -14 -14 -14 -13 -12 -13 -13 -14 -15 -16 -15 -15 -16 -15 -11 -12
-6 -7 -8 -9 -9 -9 -10 -10 -11 -12 -12 -12 -12 -12 -13 -13 -13 -13 -13 -13 -14 -14 -14 -14 -15 -15 -15 -14 -12 -14 -16 -15 -14 -12 -13 -13 -12 -11
-8 -8 -9 -10 -10 -10 -11 -12 -12 -12 -12 -12 -13 -13 -14 -14 -14 -14 -14 -14 -14 -14 -14 -15 -15 -16 -16 -16 -16 -12 -15 -14 -13 -11 -11 -10 -11 -10
-10 -10 -10 -11 -12 -12 -12 -12 -12 -12 -13 -13 -14 -14 -14 -14 -15 -15 -15 -15 -14 -14 -15 -15 -15 -15 -15 -15 -15 -13 -11 -13 -13 -12 -11 -10 -10 -9
-10 -10 -11 -12 -13 -12 -12 -13 -13 -14 -14 -15 -15 -15 -15 -15 -15 -15 -15 -15 -15 -15 -15 -15 -14 -15 -15 -15 -14 -13 -11 -11 -11 -11 -11 -11 -10 -10
-11 -12 -13 -13 -13 -13 -13 -14 -14 -15 -15 -15 -15 -16 -16 -16 -16 -16 -15 -16 -16 -16 -15 -14 -14 -15 -15 -15 -14 -13 -12 -11 -11 -10 -10 -11 -11 -11

GFSNE_850_temp_114.txt.gz
Temp
10 11 10 10 10 11 11 11 11 11 11 10 9 10 9 9 9 9 10 10 10 10 10 10 9 9 8 8 8 8 7 7 7 6 6 6 6 5
9 10 10 11 11 11 11 11 10 11 10 10 9 9 10 8 8 8 9 9 9 9 9 9 9 8 8 7 7 7 7 7 6 5 5 4 4 4
10 10 10 10 10 10 10 10 10 9 9 8 8 8 8 8 7 7 8 8 8 8 8 7 7 7 6 5 5 5 4 3 2 2 2 2 2 2
10 10 9 10 10 10 10 10 10 9 9 9 9 8 8 8 7 7 7 7 7 7 6 5 5 4 3 1 0 0 1 0 1 1 1 2 1 0
9 9 9 9 9 10 9 9 9 9 9 8 8 7 8 7 7 7 6 6 5 4 2 2 1 0 0 -1 -1 -1 -1 -1 -1 -1 -1 -1 -2 -2
9 9 9 9 9 9 9 8 9 8 8 8 7 7 7 7 7 5 5 4 3 1 -1 -1 -1 -1 -1 -1 -2 -2 -2 -2 -2 -3 -3 -3 -3 -3
8 8 8 8 8 8 7 7 8 7 7 7 6 7 7 6 6 5 3 1 0 -1 -2 -2 -3 -3 -3 -4 -3 -2 -3 -3 -4 -4 -4 -5 -6 -6
8 8 8 8 8 8 7 7 7 7 7 7 7 7 6 6 5 3 0 -1 -3 -3 -4 -3 -5 -5 -4 -3 -3 -4 -5 -5 -5 -6 -6 -6 -6 -7
9 8 7 8 8 8 7 7 7 7 7 7 7 6 5 5 3 0 -2 -3 -4 -4 -5 -6 -6 -4 -4 -5 -5 -6 -6 -6 -6 -7 -7 -7 -7 -8
8 8 8 8 8 8 7 7 7 7 7 6 6 4 3 1 -1 -2 -3 -3 -4 -5 -6 -5 -4 -4 -5 -5 -6 -6 -6 -7 -7 -7 -7 -8 -9 -8
7 7 7 7 7 7 7 7 6 5 5 4 4 2 -1 -3 -3 -3 -4 -5 -6 -5 -6 -6 -7 -6 -5 -6 -7 -7 -7 -7 -8 -8 -8 -8 -8 -8
7 7 7 6 6 6 6 5 4 3 1 -1 -3 -3 -3 -3 -3 -6 -6 -5 -5 -8 -7 -8 -10 -9 -9 -7 -8 -8 -8 -8 -7 -8 -8 -8 -8 -8
6 6 6 5 5 4 3 1 1 -1 -3 -4 -4 -4 -5 -8 -7 -6 -5 -6 -7 -7 -8 -8 -10 -12 -12 -11 -10 -11 -11 -10 -10 -11 -11 -10 -8 -9
6 5 3 2 0 -1 -2 -2 -2 -3 -5 -5 -5 -7 -8 -7 -7 -7 -7 -7 -7 -8 -8 -9 -10 -11 -12 -11 -11 -11 -11 -12 -12 -12 -12 -10 -9 -9
3 0 -2 -3 -3 -4 -4 -6 -6 -6 -5 -6 -8 -7 -7 -7 -8 -8 -8 -9 -9 -9 -9 -9 -10 -10 -11 -12 -13 -12 -13 -12 -12 -12 -11 -9 -10 -11
-2 -3 -4 -5 -5 -5 -6 -6 -6 -7 -8 -6 -7 -8 -8 -8 -9 -9 -10 -10 -10 -10 -9 -10 -10 -10 -10 -13 -13 -13 -12 -12 -12 -12 -10 -10 -11 -11
-4 -5 -6 -6 -6 -6 -6 -7 -8 -7 -7 -7 -8 -8 -9 -10 -10 -10 -10 -10 -11 -11 -12 -11 -10 -10 -12 -12 -13 -13 -13 -13 -13 -13 -12 -11 -11 -10
-5 -6 -6 -7 -7 -8 -8 -9 -8 -8 -8 -9 -9 -9 -10 -10 -10 -10 -11 -11 -12 -12 -11 -11 -11 -12 -13 -13 -12 -13 -14 -14 -14 -13 -12 -11 -10 -10
-6 -6 -7 -7 -8 -8 -8 -8 -8 -9 -9 -10 -10 -10 -11 -11 -11 -11 -11 -12 -12 -11 -12 -12 -13 -13 -13 -13 -13 -11 -12 -12 -13 -13 -11 -12 -12 -11
-7 -8 -8 -8 -9 -9 -9 -10 -10 -10 -10 -10 -11 -11 -11 -12 -12 -12 -12 -12 -12 -12 -14 -14 -15 -13 -12 -15 -16 -12 -13 -12 -11 -10 -9 -10 -10 -9
-7 -7 -8 -9 -9 -9 -9 -10 -10 -11 -11 -11 -12 -12 -12 -13 -13 -12 -12 -12 -12 -15 -15 -15 -14 -12 -14 -16 -15 -14 -12 -12 -11 -11 -10 -11 -10 -10
-9 -9 -10 -10 -9 -10 -11 -11 -12 -12 -12 -12 -13 -13 -13 -13 -13 -13 -13 -13 -15 -14 -15 -15 -15 -16 -16 -16 -15 -14 -12 -11 -11 -11 -11 -11 -11 -11
-9 -9 -10 -11 -11 -12 -12 -12 -12 -12 -13 -13 -13 -14 -14 -14 -14 -14 -14 -14 -14 -14 -15 -14 -16 -16 -16 -15 -14 -15 -14 -13 -13 -12 -11 -11 -11 -10